Index of /20260506/WXO-DD/model_rdps/10km/06/048
Name Last modified Size Description
Parent Directory -
20260506T06Z_MSC_RDPS_AbsoluteVorticity_IsbL-0250_RLatLon0.09_PT048H.grib2 2026-05-06 08:56 592K
20260506T06Z_MSC_RDPS_AbsoluteVorticity_IsbL-0500_RLatLon0.09_PT048H.grib2 2026-05-06 08:56 554K
20260506T06Z_MSC_RDPS_AbsoluteVorticity_IsbL-0700_RLatLon0.09_PT048H.grib2 2026-05-06 08:56 743K
20260506T06Z_MSC_RDPS_AbsoluteVorticity_IsbL-0850_RLatLon0.09_PT048H.grib2 2026-05-06 08:56 778K
20260506T06Z_MSC_RDPS_AirTemp_AGL-120m_RLatLon0.09_PT048H.grib2 2026-05-06 08:56 373K
20260506T06Z_MSC_RDPS_AirTemp_AGL-2m_RLatLon0.09_PT048H.grib2 2026-05-06 08:56 632K
20260506T06Z_MSC_RDPS_AirTemp_AGL-40m_RLatLon0.09_PT048H.grib2 2026-05-06 08:56 392K
20260506T06Z_MSC_RDPS_AirTemp_AGL-80m_RLatLon0.09_PT048H.grib2 2026-05-06 08:56 381K
20260506T06Z_MSC_RDPS_AirTemp_IsbL-0001_RLatLon0.09_PT048H.grib2 2026-05-06 08:56 298K
20260506T06Z_MSC_RDPS_AirTemp_IsbL-0005_RLatLon0.09_PT048H.grib2 2026-05-06 08:56 370K
20260506T06Z_MSC_RDPS_AirTemp_IsbL-0010_RLatLon0.09_PT048H.grib2 2026-05-06 08:56 387K
20260506T06Z_MSC_RDPS_AirTemp_IsbL-0020_RLatLon0.09_PT048H.grib2 2026-05-06 08:56 316K
20260506T06Z_MSC_RDPS_AirTemp_IsbL-0030_RLatLon0.09_PT048H.grib2 2026-05-06 08:56 336K
20260506T06Z_MSC_RDPS_AirTemp_IsbL-0050_RLatLon0.09_PT048H.grib2 2026-05-06 08:56 310K
20260506T06Z_MSC_RDPS_AirTemp_IsbL-0100_RLatLon0.09_PT048H.grib2 2026-05-06 08:56 420K
20260506T06Z_MSC_RDPS_AirTemp_IsbL-0150_RLatLon0.09_PT048H.grib2 2026-05-06 08:56 404K
20260506T06Z_MSC_RDPS_AirTemp_IsbL-0175_RLatLon0.09_PT048H.grib2 2026-05-06 08:56 398K
20260506T06Z_MSC_RDPS_AirTemp_IsbL-0200_RLatLon0.09_PT048H.grib2 2026-05-06 08:56 404K
20260506T06Z_MSC_RDPS_AirTemp_IsbL-0225_RLatLon0.09_PT048H.grib2 2026-05-06 08:56 407K
20260506T06Z_MSC_RDPS_AirTemp_IsbL-0250_RLatLon0.09_PT048H.grib2 2026-05-06 08:56 414K
20260506T06Z_MSC_RDPS_AirTemp_IsbL-0275_RLatLon0.09_PT048H.grib2 2026-05-06 08:56 396K
20260506T06Z_MSC_RDPS_AirTemp_IsbL-0300_RLatLon0.09_PT048H.grib2 2026-05-06 08:56 428K
20260506T06Z_MSC_RDPS_AirTemp_IsbL-0350_RLatLon0.09_PT048H.grib2 2026-05-06 08:56 415K
20260506T06Z_MSC_RDPS_AirTemp_IsbL-0400_RLatLon0.09_PT048H.grib2 2026-05-06 08:56 417K
20260506T06Z_MSC_RDPS_AirTemp_IsbL-0450_RLatLon0.09_PT048H.grib2 2026-05-06 08:56 391K
20260506T06Z_MSC_RDPS_AirTemp_IsbL-0500_RLatLon0.09_PT048H.grib2 2026-05-06 08:56 402K
20260506T06Z_MSC_RDPS_AirTemp_IsbL-0550_RLatLon0.09_PT048H.grib2 2026-05-06 08:56 417K
20260506T06Z_MSC_RDPS_AirTemp_IsbL-0600_RLatLon0.09_PT048H.grib2 2026-05-06 08:56 435K
20260506T06Z_MSC_RDPS_AirTemp_IsbL-0650_RLatLon0.09_PT048H.grib2 2026-05-06 08:56 448K
20260506T06Z_MSC_RDPS_AirTemp_IsbL-0700_RLatLon0.09_PT048H.grib2 2026-05-06 08:56 474K
20260506T06Z_MSC_RDPS_AirTemp_IsbL-0750_RLatLon0.09_PT048H.grib2 2026-05-06 08:56 513K
20260506T06Z_MSC_RDPS_AirTemp_IsbL-0800_RLatLon0.09_PT048H.grib2 2026-05-06 08:56 566K
20260506T06Z_MSC_RDPS_AirTemp_IsbL-0850_RLatLon0.09_PT048H.grib2 2026-05-06 08:56 497K
20260506T06Z_MSC_RDPS_AirTemp_IsbL-0875_RLatLon0.09_PT048H.grib2 2026-05-06 08:56 515K
20260506T06Z_MSC_RDPS_AirTemp_IsbL-0900_RLatLon0.09_PT048H.grib2 2026-05-06 08:56 654K
20260506T06Z_MSC_RDPS_AirTemp_IsbL-0925_RLatLon0.09_PT048H.grib2 2026-05-06 08:56 520K
20260506T06Z_MSC_RDPS_AirTemp_IsbL-0950_RLatLon0.09_PT048H.grib2 2026-05-06 08:56 521K
20260506T06Z_MSC_RDPS_AirTemp_IsbL-0970_RLatLon0.09_PT048H.grib2 2026-05-06 08:56 515K
20260506T06Z_MSC_RDPS_AirTemp_IsbL-0985_RLatLon0.09_PT048H.grib2 2026-05-06 08:56 503K
20260506T06Z_MSC_RDPS_AirTemp_IsbL-1000_RLatLon0.09_PT048H.grib2 2026-05-06 08:56 489K
20260506T06Z_MSC_RDPS_AirTemp_IsbL-1015_RLatLon0.09_PT048H.grib2 2026-05-06 08:56 487K
20260506T06Z_MSC_RDPS_Albedo_Sfc_RLatLon0.09_PT048H.grib2 2026-05-06 08:56 156K
20260506T06Z_MSC_RDPS_CAPE_Sfc_RLatLon0.09_PT048H.grib2 2026-05-06 08:56 1.6M
20260506T06Z_MSC_RDPS_CIN_Sfc_RLatLon0.09_PT048H.grib2 2026-05-06 08:56 1.2M
20260506T06Z_MSC_RDPS_CloudWater_EAtm_RLatLon0.09_PT048H.grib2 2026-05-06 08:56 224K
20260506T06Z_MSC_RDPS_ConvectivePrecip-Accum_Sfc_RLatLon0.09_PT048H.grib2 2026-05-06 08:56 1.1M
20260506T06Z_MSC_RDPS_DewPointDepression_AGL-2m_RLatLon0.09_PT048H.grib2 2026-05-06 08:56 400K
20260506T06Z_MSC_RDPS_DewPointDepression_IsbL-0001_RLatLon0.09_PT048H.grib2 2026-05-06 08:56 193
20260506T06Z_MSC_RDPS_DewPointDepression_IsbL-0005_RLatLon0.09_PT048H.grib2 2026-05-06 08:56 193
20260506T06Z_MSC_RDPS_DewPointDepression_IsbL-0010_RLatLon0.09_PT048H.grib2 2026-05-06 08:56 193
20260506T06Z_MSC_RDPS_DewPointDepression_IsbL-0020_RLatLon0.09_PT048H.grib2 2026-05-06 08:56 193
20260506T06Z_MSC_RDPS_DewPointDepression_IsbL-0030_RLatLon0.09_PT048H.grib2 2026-05-06 08:56 193
20260506T06Z_MSC_RDPS_DewPointDepression_IsbL-0050_RLatLon0.09_PT048H.grib2 2026-05-06 08:56 83K
20260506T06Z_MSC_RDPS_DewPointDepression_IsbL-0100_RLatLon0.09_PT048H.grib2 2026-05-06 08:56 110K
20260506T06Z_MSC_RDPS_DewPointDepression_IsbL-0150_RLatLon0.09_PT048H.grib2 2026-05-06 08:56 137K
20260506T06Z_MSC_RDPS_DewPointDepression_IsbL-0175_RLatLon0.09_PT048H.grib2 2026-05-06 08:56 172K
20260506T06Z_MSC_RDPS_DewPointDepression_IsbL-0200_RLatLon0.09_PT048H.grib2 2026-05-06 08:56 213K
20260506T06Z_MSC_RDPS_DewPointDepression_IsbL-0225_RLatLon0.09_PT048H.grib2 2026-05-06 08:56 246K
20260506T06Z_MSC_RDPS_DewPointDepression_IsbL-0250_RLatLon0.09_PT048H.grib2 2026-05-06 08:56 295K
20260506T06Z_MSC_RDPS_DewPointDepression_IsbL-0275_RLatLon0.09_PT048H.grib2 2026-05-06 08:56 304K
20260506T06Z_MSC_RDPS_DewPointDepression_IsbL-0300_RLatLon0.09_PT048H.grib2 2026-05-06 08:56 321K
20260506T06Z_MSC_RDPS_DewPointDepression_IsbL-0350_RLatLon0.09_PT048H.grib2 2026-05-06 08:56 324K
20260506T06Z_MSC_RDPS_DewPointDepression_IsbL-0400_RLatLon0.09_PT048H.grib2 2026-05-06 08:56 328K
20260506T06Z_MSC_RDPS_DewPointDepression_IsbL-0450_RLatLon0.09_PT048H.grib2 2026-05-06 08:56 334K
20260506T06Z_MSC_RDPS_DewPointDepression_IsbL-0500_RLatLon0.09_PT048H.grib2 2026-05-06 08:56 343K
20260506T06Z_MSC_RDPS_DewPointDepression_IsbL-0550_RLatLon0.09_PT048H.grib2 2026-05-06 08:56 356K
20260506T06Z_MSC_RDPS_DewPointDepression_IsbL-0600_RLatLon0.09_PT048H.grib2 2026-05-06 08:56 370K
20260506T06Z_MSC_RDPS_DewPointDepression_IsbL-0650_RLatLon0.09_PT048H.grib2 2026-05-06 08:56 375K
20260506T06Z_MSC_RDPS_DewPointDepression_IsbL-0700_RLatLon0.09_PT048H.grib2 2026-05-06 08:56 387K
20260506T06Z_MSC_RDPS_DewPointDepression_IsbL-0750_RLatLon0.09_PT048H.grib2 2026-05-06 08:56 411K
20260506T06Z_MSC_RDPS_DewPointDepression_IsbL-0800_RLatLon0.09_PT048H.grib2 2026-05-06 08:56 447K
20260506T06Z_MSC_RDPS_DewPointDepression_IsbL-0850_RLatLon0.09_PT048H.grib2 2026-05-06 08:56 479K
20260506T06Z_MSC_RDPS_DewPointDepression_IsbL-0875_RLatLon0.09_PT048H.grib2 2026-05-06 08:56 477K
20260506T06Z_MSC_RDPS_DewPointDepression_IsbL-0900_RLatLon0.09_PT048H.grib2 2026-05-06 08:56 464K
20260506T06Z_MSC_RDPS_DewPointDepression_IsbL-0925_RLatLon0.09_PT048H.grib2 2026-05-06 08:56 451K
20260506T06Z_MSC_RDPS_DewPointDepression_IsbL-0950_RLatLon0.09_PT048H.grib2 2026-05-06 08:56 441K
20260506T06Z_MSC_RDPS_DewPointDepression_IsbL-0970_RLatLon0.09_PT048H.grib2 2026-05-06 08:56 435K
20260506T06Z_MSC_RDPS_DewPointDepression_IsbL-0985_RLatLon0.09_PT048H.grib2 2026-05-06 08:56 432K
20260506T06Z_MSC_RDPS_DewPointDepression_IsbL-1000_RLatLon0.09_PT048H.grib2 2026-05-06 08:56 427K
20260506T06Z_MSC_RDPS_DewPointDepression_IsbL-1015_RLatLon0.09_PT048H.grib2 2026-05-06 08:56 416K
20260506T06Z_MSC_RDPS_DewPoint_AGL-2m_RLatLon0.09_PT048H.grib2 2026-05-06 08:56 395K
20260506T06Z_MSC_RDPS_DownwardLongwaveRadiationFlux-Accum_Sfc_RLatLon0.09_PT048H.grib2 2026-05-06 08:56 374K
20260506T06Z_MSC_RDPS_DownwardShortwaveRadiationFlux-Accum_NTAtm_RLatLon0.09_PT048H.grib2 2026-05-06 08:56 144K
20260506T06Z_MSC_RDPS_DownwardShortwaveRadiationFlux-Accum_Sfc_RLatLon0.09_PT048H.grib2 2026-05-06 08:56 570K
20260506T06Z_MSC_RDPS_FreezingRain-Accum12h_Sfc_RLatLon0.09_PT048H.grib2 2026-05-06 08:56 72K
20260506T06Z_MSC_RDPS_FreezingRain-Accum1h_Sfc_RLatLon0.09_PT048H.grib2 2026-05-06 08:56 36K
20260506T06Z_MSC_RDPS_FreezingRain-Accum24h_Sfc_RLatLon0.09_PT048H.grib2 2026-05-06 08:56 129K
20260506T06Z_MSC_RDPS_FreezingRain-Accum3h_Sfc_RLatLon0.09_PT048H.grib2 2026-05-06 08:56 42K
20260506T06Z_MSC_RDPS_FreezingRain-Accum6h_Sfc_RLatLon0.09_PT048H.grib2 2026-05-06 08:56 60K
20260506T06Z_MSC_RDPS_FreezingRain-Accum_Sfc_RLatLon0.09_PT048H.grib2 2026-05-06 08:56 193K
20260506T06Z_MSC_RDPS_GeopotentialHeight_IsbL-0001_RLatLon0.09_PT048H.grib2 2026-05-06 08:56 305K
20260506T06Z_MSC_RDPS_GeopotentialHeight_IsbL-0005_RLatLon0.09_PT048H.grib2 2026-05-06 08:56 331K
20260506T06Z_MSC_RDPS_GeopotentialHeight_IsbL-0010_RLatLon0.09_PT048H.grib2 2026-05-06 08:56 334K
20260506T06Z_MSC_RDPS_GeopotentialHeight_IsbL-0020_RLatLon0.09_PT048H.grib2 2026-05-06 08:56 300K
20260506T06Z_MSC_RDPS_GeopotentialHeight_IsbL-0030_RLatLon0.09_PT048H.grib2 2026-05-06 08:56 303K
20260506T06Z_MSC_RDPS_GeopotentialHeight_IsbL-0050_RLatLon0.09_PT048H.grib2 2026-05-06 08:56 304K
20260506T06Z_MSC_RDPS_GeopotentialHeight_IsbL-0100_RLatLon0.09_PT048H.grib2 2026-05-06 08:56 282K
20260506T06Z_MSC_RDPS_GeopotentialHeight_IsbL-0150_RLatLon0.09_PT048H.grib2 2026-05-06 08:56 225K
20260506T06Z_MSC_RDPS_GeopotentialHeight_IsbL-0175_RLatLon0.09_PT048H.grib2 2026-05-06 08:56 258K
20260506T06Z_MSC_RDPS_GeopotentialHeight_IsbL-0200_RLatLon0.09_PT048H.grib2 2026-05-06 08:56 261K
20260506T06Z_MSC_RDPS_GeopotentialHeight_IsbL-0225_RLatLon0.09_PT048H.grib2 2026-05-06 08:56 262K
20260506T06Z_MSC_RDPS_GeopotentialHeight_IsbL-0250_RLatLon0.09_PT048H.grib2 2026-05-06 08:56 263K
20260506T06Z_MSC_RDPS_GeopotentialHeight_IsbL-0275_RLatLon0.09_PT048H.grib2 2026-05-06 08:56 263K
20260506T06Z_MSC_RDPS_GeopotentialHeight_IsbL-0300_RLatLon0.09_PT048H.grib2 2026-05-06 08:56 262K
20260506T06Z_MSC_RDPS_GeopotentialHeight_IsbL-0350_RLatLon0.09_PT048H.grib2 2026-05-06 08:56 228K
20260506T06Z_MSC_RDPS_GeopotentialHeight_IsbL-0400_RLatLon0.09_PT048H.grib2 2026-05-06 08:56 224K
20260506T06Z_MSC_RDPS_GeopotentialHeight_IsbL-0450_RLatLon0.09_PT048H.grib2 2026-05-06 08:56 291K
20260506T06Z_MSC_RDPS_GeopotentialHeight_IsbL-0500_RLatLon0.09_PT048H.grib2 2026-05-06 08:56 285K
20260506T06Z_MSC_RDPS_GeopotentialHeight_IsbL-0550_RLatLon0.09_PT048H.grib2 2026-05-06 08:56 283K
20260506T06Z_MSC_RDPS_GeopotentialHeight_IsbL-0600_RLatLon0.09_PT048H.grib2 2026-05-06 08:56 278K
20260506T06Z_MSC_RDPS_GeopotentialHeight_IsbL-0650_RLatLon0.09_PT048H.grib2 2026-05-06 08:56 249K
20260506T06Z_MSC_RDPS_GeopotentialHeight_IsbL-0700_RLatLon0.09_PT048H.grib2 2026-05-06 08:56 329K
20260506T06Z_MSC_RDPS_GeopotentialHeight_IsbL-0750_RLatLon0.09_PT048H.grib2 2026-05-06 08:56 330K
20260506T06Z_MSC_RDPS_GeopotentialHeight_IsbL-0800_RLatLon0.09_PT048H.grib2 2026-05-06 08:56 339K
20260506T06Z_MSC_RDPS_GeopotentialHeight_IsbL-0850_RLatLon0.09_PT048H.grib2 2026-05-06 08:56 381K
20260506T06Z_MSC_RDPS_GeopotentialHeight_IsbL-0875_RLatLon0.09_PT048H.grib2 2026-05-06 08:56 385K
20260506T06Z_MSC_RDPS_GeopotentialHeight_IsbL-0900_RLatLon0.09_PT048H.grib2 2026-05-06 08:56 388K
20260506T06Z_MSC_RDPS_GeopotentialHeight_IsbL-0925_RLatLon0.09_PT048H.grib2 2026-05-06 08:56 364K
20260506T06Z_MSC_RDPS_GeopotentialHeight_IsbL-0950_RLatLon0.09_PT048H.grib2 2026-05-06 08:56 367K
20260506T06Z_MSC_RDPS_GeopotentialHeight_IsbL-0970_RLatLon0.09_PT048H.grib2 2026-05-06 08:56 371K
20260506T06Z_MSC_RDPS_GeopotentialHeight_IsbL-0985_RLatLon0.09_PT048H.grib2 2026-05-06 08:56 406K
20260506T06Z_MSC_RDPS_GeopotentialHeight_IsbL-1000_RLatLon0.09_PT048H.grib2 2026-05-06 08:56 419K
20260506T06Z_MSC_RDPS_GeopotentialHeight_IsbL-1015_RLatLon0.09_PT048H.grib2 2026-05-06 08:56 434K
20260506T06Z_MSC_RDPS_HighLowPressure_MSL_RLatLon0.09_PT048H.json 2026-05-06 08:46 21K
20260506T06Z_MSC_RDPS_Humidex_Sfc_RLatLon0.09_PT048H.grib2 2026-05-06 08:56 2.4M
20260506T06Z_MSC_RDPS_IcePellets-Accum12h_Sfc_RLatLon0.09_PT048H.grib2 2026-05-06 08:56 7.2K
20260506T06Z_MSC_RDPS_IcePellets-Accum1h_Sfc_RLatLon0.09_PT048H.grib2 2026-05-06 08:56 3.9K
20260506T06Z_MSC_RDPS_IcePellets-Accum24h_Sfc_RLatLon0.09_PT048H.grib2 2026-05-06 08:56 13K
20260506T06Z_MSC_RDPS_IcePellets-Accum3h_Sfc_RLatLon0.09_PT048H.grib2 2026-05-06 08:56 5.2K
20260506T06Z_MSC_RDPS_IcePellets-Accum6h_Sfc_RLatLon0.09_PT048H.grib2 2026-05-06 08:56 6.2K
20260506T06Z_MSC_RDPS_IcePellets-Accum_Sfc_RLatLon0.09_PT048H.grib2 2026-05-06 08:56 25K
20260506T06Z_MSC_RDPS_KIndex_Sfc_RLatLon0.09_PT048H.grib2 2026-05-06 08:56 2.5M
20260506T06Z_MSC_RDPS_LatentHeatNetFlux_Sfc_RLatLon0.09_PT048H.grib2 2026-05-06 08:56 311K
20260506T06Z_MSC_RDPS_LiftedIndex-MU-VT_IsbL-0500_RLatLon0.09_PT048H.grib2 2026-05-06 08:56 2.4M
20260506T06Z_MSC_RDPS_NetLongwaveRadiationFlux-Accum_Sfc_RLatLon0.09_PT048H.grib2 2026-05-06 08:56 548K
20260506T06Z_MSC_RDPS_NetShortwaveRadiationFlux-Accum_Sfc_RLatLon0.09_PT048H.grib2 2026-05-06 08:56 568K
20260506T06Z_MSC_RDPS_PlanetaryBoundaryLayerHeight_Sfc_RLatLon0.09_PT048H.grib2 2026-05-06 08:56 1.1M
20260506T06Z_MSC_RDPS_Precip-Accum12h_Sfc_RLatLon0.09_PT048H.grib2 2026-05-06 08:56 1.8M
20260506T06Z_MSC_RDPS_Precip-Accum1h_Sfc_RLatLon0.09_PT048H.grib2 2026-05-06 08:56 1.2M
20260506T06Z_MSC_RDPS_Precip-Accum24h_Sfc_RLatLon0.09_PT048H.grib2 2026-05-06 08:56 2.0M
20260506T06Z_MSC_RDPS_Precip-Accum3h_Sfc_RLatLon0.09_PT048H.grib2 2026-05-06 08:56 1.3M
20260506T06Z_MSC_RDPS_Precip-Accum6h_Sfc_RLatLon0.09_PT048H.grib2 2026-05-06 08:56 1.5M
20260506T06Z_MSC_RDPS_Precip-Accum_Sfc_RLatLon0.09_PT048H.grib2 2026-05-06 08:56 2.1M
20260506T06Z_MSC_RDPS_PrecipRate_Sfc_RLatLon0.09_PT048H.grib2 2026-05-06 08:56 158K
20260506T06Z_MSC_RDPS_PrecipType-Instant_Sfc_RLatLon0.09_PT048H.grib2 2026-05-06 08:56 563K
20260506T06Z_MSC_RDPS_Pressure-Trend3h_Sfc_RLatLon0.09_PT048H.grib2 2026-05-06 08:56 1.2M
20260506T06Z_MSC_RDPS_Pressure_MSL_RLatLon0.09_PT048H.grib2 2026-05-06 08:56 318K
20260506T06Z_MSC_RDPS_Pressure_PVU-1.5_RLatLon0.09_PT048H.grib2 2026-05-06 08:56 2.5M
20260506T06Z_MSC_RDPS_Pressure_PVU-1_RLatLon0.09_PT048H.grib2 2026-05-06 08:56 2.4M
20260506T06Z_MSC_RDPS_Pressure_PVU-2_RLatLon0.09_PT048H.grib2 2026-05-06 08:56 2.4M
20260506T06Z_MSC_RDPS_Pressure_Sfc_RLatLon0.09_PT048H.grib2 2026-05-06 08:56 497K
20260506T06Z_MSC_RDPS_RadiativeTemp_Sfc_RLatLon0.09_PT048H.grib2 2026-05-06 08:56 304K
20260506T06Z_MSC_RDPS_Rain-Accum12h_Sfc_RLatLon0.09_PT048H.grib2 2026-05-06 08:56 1.2M
20260506T06Z_MSC_RDPS_Rain-Accum1h_Sfc_RLatLon0.09_PT048H.grib2 2026-05-06 08:56 531K
20260506T06Z_MSC_RDPS_Rain-Accum24h_Sfc_RLatLon0.09_PT048H.grib2 2026-05-06 08:56 1.5M
20260506T06Z_MSC_RDPS_Rain-Accum3h_Sfc_RLatLon0.09_PT048H.grib2 2026-05-06 08:56 606K
20260506T06Z_MSC_RDPS_Rain-Accum6h_Sfc_RLatLon0.09_PT048H.grib2 2026-05-06 08:56 1.0M
20260506T06Z_MSC_RDPS_Rain-Accum_Sfc_RLatLon0.09_PT048H.grib2 2026-05-06 08:56 1.7M
20260506T06Z_MSC_RDPS_RelativeHumidity_AGL-2m_RLatLon0.09_PT048H.grib2 2026-05-06 08:56 1.0M
20260506T06Z_MSC_RDPS_RelativeHumidity_IsbL-0010_RLatLon0.09_PT048H.grib2 2026-05-06 08:56 593K
20260506T06Z_MSC_RDPS_RelativeHumidity_IsbL-0020_RLatLon0.09_PT048H.grib2 2026-05-06 08:56 649K
20260506T06Z_MSC_RDPS_RelativeHumidity_IsbL-0030_RLatLon0.09_PT048H.grib2 2026-05-06 08:56 639K
20260506T06Z_MSC_RDPS_RelativeHumidity_IsbL-0050_RLatLon0.09_PT048H.grib2 2026-05-06 08:56 356K
20260506T06Z_MSC_RDPS_RelativeHumidity_IsbL-0100_RLatLon0.09_PT048H.grib2 2026-05-06 08:56 274K
20260506T06Z_MSC_RDPS_RelativeHumidity_IsbL-0150_RLatLon0.09_PT048H.grib2 2026-05-06 08:56 403K
20260506T06Z_MSC_RDPS_RelativeHumidity_IsbL-0175_RLatLon0.09_PT048H.grib2 2026-05-06 08:56 456K
20260506T06Z_MSC_RDPS_RelativeHumidity_IsbL-0200_RLatLon0.09_PT048H.grib2 2026-05-06 08:56 528K
20260506T06Z_MSC_RDPS_RelativeHumidity_IsbL-0225_RLatLon0.09_PT048H.grib2 2026-05-06 08:56 595K
20260506T06Z_MSC_RDPS_RelativeHumidity_IsbL-0250_RLatLon0.09_PT048H.grib2 2026-05-06 08:56 662K
20260506T06Z_MSC_RDPS_RelativeHumidity_IsbL-0275_RLatLon0.09_PT048H.grib2 2026-05-06 08:56 689K
20260506T06Z_MSC_RDPS_RelativeHumidity_IsbL-0300_RLatLon0.09_PT048H.grib2 2026-05-06 08:56 737K
20260506T06Z_MSC_RDPS_RelativeHumidity_IsbL-0350_RLatLon0.09_PT048H.grib2 2026-05-06 08:56 756K
20260506T06Z_MSC_RDPS_RelativeHumidity_IsbL-0400_RLatLon0.09_PT048H.grib2 2026-05-06 08:56 771K
20260506T06Z_MSC_RDPS_RelativeHumidity_IsbL-0450_RLatLon0.09_PT048H.grib2 2026-05-06 08:56 780K
20260506T06Z_MSC_RDPS_RelativeHumidity_IsbL-0500_RLatLon0.09_PT048H.grib2 2026-05-06 08:56 792K
20260506T06Z_MSC_RDPS_RelativeHumidity_IsbL-0550_RLatLon0.09_PT048H.grib2 2026-05-06 08:56 813K
20260506T06Z_MSC_RDPS_RelativeHumidity_IsbL-0600_RLatLon0.09_PT048H.grib2 2026-05-06 08:56 835K
20260506T06Z_MSC_RDPS_RelativeHumidity_IsbL-0650_RLatLon0.09_PT048H.grib2 2026-05-06 08:56 847K
20260506T06Z_MSC_RDPS_RelativeHumidity_IsbL-0700_RLatLon0.09_PT048H.grib2 2026-05-06 08:56 880K
20260506T06Z_MSC_RDPS_RelativeHumidity_IsbL-0750_RLatLon0.09_PT048H.grib2 2026-05-06 08:56 925K
20260506T06Z_MSC_RDPS_RelativeHumidity_IsbL-0800_RLatLon0.09_PT048H.grib2 2026-05-06 08:56 1.0M
20260506T06Z_MSC_RDPS_RelativeHumidity_IsbL-0850_RLatLon0.09_PT048H.grib2 2026-05-06 08:56 1.0M
20260506T06Z_MSC_RDPS_RelativeHumidity_IsbL-0875_RLatLon0.09_PT048H.grib2 2026-05-06 08:56 1.1M
20260506T06Z_MSC_RDPS_RelativeHumidity_IsbL-0900_RLatLon0.09_PT048H.grib2 2026-05-06 08:56 1.1M
20260506T06Z_MSC_RDPS_RelativeHumidity_IsbL-0925_RLatLon0.09_PT048H.grib2 2026-05-06 08:56 1.1M
20260506T06Z_MSC_RDPS_RelativeHumidity_IsbL-0950_RLatLon0.09_PT048H.grib2 2026-05-06 08:56 1.1M
20260506T06Z_MSC_RDPS_RelativeHumidity_IsbL-0970_RLatLon0.09_PT048H.grib2 2026-05-06 08:56 1.0M
20260506T06Z_MSC_RDPS_RelativeHumidity_IsbL-0985_RLatLon0.09_PT048H.grib2 2026-05-06 08:56 1.0M
20260506T06Z_MSC_RDPS_RelativeHumidity_IsbL-1000_RLatLon0.09_PT048H.grib2 2026-05-06 08:56 1.0M
20260506T06Z_MSC_RDPS_RelativeHumidity_IsbL-1015_RLatLon0.09_PT048H.grib2 2026-05-06 08:56 1.0M
20260506T06Z_MSC_RDPS_Runoff-Accum_Sfc_RLatLon0.09_PT048H.grib2 2026-05-06 08:56 76K
20260506T06Z_MSC_RDPS_SWEATIndex_Sfc_RLatLon0.09_PT048H.grib2 2026-05-06 08:56 2.4M
20260506T06Z_MSC_RDPS_SeeingIndex_EAtm_RLatLon0.09_PT048H.grib2 2026-05-06 08:56 1.0M
20260506T06Z_MSC_RDPS_SensibleHeatNetFlux_Sfc_RLatLon0.09_PT048H.grib2 2026-05-06 08:56 207K
20260506T06Z_MSC_RDPS_ShowalterIndex_IsbL-0500_RLatLon0.09_PT048H.grib2 2026-05-06 08:56 2.6M
20260506T06Z_MSC_RDPS_SkyTransparencyIndex_EAtm_RLatLon0.09_PT048H.grib2 2026-05-06 08:56 724K
20260506T06Z_MSC_RDPS_Snow-Accum12h_Sfc_RLatLon0.09_PT048H.grib2 2026-05-06 08:56 587K
20260506T06Z_MSC_RDPS_Snow-Accum1h_Sfc_RLatLon0.09_PT048H.grib2 2026-05-06 08:56 507K
20260506T06Z_MSC_RDPS_Snow-Accum24h_Sfc_RLatLon0.09_PT048H.grib2 2026-05-06 08:56 620K
20260506T06Z_MSC_RDPS_Snow-Accum3h_Sfc_RLatLon0.09_PT048H.grib2 2026-05-06 08:56 465K
20260506T06Z_MSC_RDPS_Snow-Accum6h_Sfc_RLatLon0.09_PT048H.grib2 2026-05-06 08:56 572K
20260506T06Z_MSC_RDPS_Snow-Accum_Sfc_RLatLon0.09_PT048H.grib2 2026-05-06 08:56 749K
20260506T06Z_MSC_RDPS_SnowDensity_Sfc_RLatLon0.09_PT048H.grib2 2026-05-06 08:56 174K
20260506T06Z_MSC_RDPS_SnowDepth_Sfc_RLatLon0.09_PT048H.grib2 2026-05-06 08:56 638K
20260506T06Z_MSC_RDPS_SoilTemp_DBS-0to10cm_RLatLon0.09_PT048H.grib2 2026-05-06 08:56 237K
20260506T06Z_MSC_RDPS_SoilTemp_Sfc_RLatLon0.09_PT048H.grib2 2026-05-06 08:56 261K
20260506T06Z_MSC_RDPS_SoilVolumetricIceContent_Sfc_RLatLon0.09_PT048H.grib2 2026-05-06 08:56 147K
20260506T06Z_MSC_RDPS_SoilVolumetricWaterContent_DBS-0to10cm_RLatLon0.09_PT048H.grib2 2026-05-06 08:56 285K
20260506T06Z_MSC_RDPS_SoilVolumetricWaterContent_DBS-0to1cm_RLatLon0.09_PT048H.grib2 2026-05-06 08:56 343K
20260506T06Z_MSC_RDPS_SpecificHumidity_AGL-120m_RLatLon0.09_PT048H.grib2 2026-05-06 08:56 498K
20260506T06Z_MSC_RDPS_SpecificHumidity_AGL-2m_RLatLon0.09_PT048H.grib2 2026-05-06 08:56 664K
20260506T06Z_MSC_RDPS_SpecificHumidity_AGL-40m_RLatLon0.09_PT048H.grib2 2026-05-06 08:56 504K
20260506T06Z_MSC_RDPS_SpecificHumidity_AGL-80m_RLatLon0.09_PT048H.grib2 2026-05-06 08:56 500K
20260506T06Z_MSC_RDPS_SpecificHumidity_IsbL-0001_RLatLon0.09_PT048H.grib2 2026-05-06 08:56 404K
20260506T06Z_MSC_RDPS_SpecificHumidity_IsbL-0005_RLatLon0.09_PT048H.grib2 2026-05-06 08:56 375K
20260506T06Z_MSC_RDPS_SpecificHumidity_IsbL-0010_RLatLon0.09_PT048H.grib2 2026-05-06 08:56 410K
20260506T06Z_MSC_RDPS_SpecificHumidity_IsbL-0020_RLatLon0.09_PT048H.grib2 2026-05-06 08:56 495K
20260506T06Z_MSC_RDPS_SpecificHumidity_IsbL-0030_RLatLon0.09_PT048H.grib2 2026-05-06 08:56 371K
20260506T06Z_MSC_RDPS_SpecificHumidity_IsbL-0050_RLatLon0.09_PT048H.grib2 2026-05-06 08:56 475K
20260506T06Z_MSC_RDPS_SpecificHumidity_IsbL-0100_RLatLon0.09_PT048H.grib2 2026-05-06 08:56 439K
20260506T06Z_MSC_RDPS_SpecificHumidity_IsbL-0150_RLatLon0.09_PT048H.grib2 2026-05-06 08:56 447K
20260506T06Z_MSC_RDPS_SpecificHumidity_IsbL-0175_RLatLon0.09_PT048H.grib2 2026-05-06 08:56 427K
20260506T06Z_MSC_RDPS_SpecificHumidity_IsbL-0200_RLatLon0.09_PT048H.grib2 2026-05-06 08:56 458K
20260506T06Z_MSC_RDPS_SpecificHumidity_IsbL-0225_RLatLon0.09_PT048H.grib2 2026-05-06 08:56 457K
20260506T06Z_MSC_RDPS_SpecificHumidity_IsbL-0250_RLatLon0.09_PT048H.grib2 2026-05-06 08:56 502K
20260506T06Z_MSC_RDPS_SpecificHumidity_IsbL-0275_RLatLon0.09_PT048H.grib2 2026-05-06 08:56 462K
20260506T06Z_MSC_RDPS_SpecificHumidity_IsbL-0300_RLatLon0.09_PT048H.grib2 2026-05-06 08:56 438K
20260506T06Z_MSC_RDPS_SpecificHumidity_IsbL-0350_RLatLon0.09_PT048H.grib2 2026-05-06 08:56 430K
20260506T06Z_MSC_RDPS_SpecificHumidity_IsbL-0400_RLatLon0.09_PT048H.grib2 2026-05-06 08:56 509K
20260506T06Z_MSC_RDPS_SpecificHumidity_IsbL-0450_RLatLon0.09_PT048H.grib2 2026-05-06 08:56 448K
20260506T06Z_MSC_RDPS_SpecificHumidity_IsbL-0500_RLatLon0.09_PT048H.grib2 2026-05-06 08:56 501K
20260506T06Z_MSC_RDPS_SpecificHumidity_IsbL-0550_RLatLon0.09_PT048H.grib2 2026-05-06 08:56 577K
20260506T06Z_MSC_RDPS_SpecificHumidity_IsbL-0600_RLatLon0.09_PT048H.grib2 2026-05-06 08:56 632K
20260506T06Z_MSC_RDPS_SpecificHumidity_IsbL-0650_RLatLon0.09_PT048H.grib2 2026-05-06 08:56 550K
20260506T06Z_MSC_RDPS_SpecificHumidity_IsbL-0700_RLatLon0.09_PT048H.grib2 2026-05-06 08:56 595K
20260506T06Z_MSC_RDPS_SpecificHumidity_IsbL-0750_RLatLon0.09_PT048H.grib2 2026-05-06 08:56 654K
20260506T06Z_MSC_RDPS_SpecificHumidity_IsbL-0800_RLatLon0.09_PT048H.grib2 2026-05-06 08:56 739K
20260506T06Z_MSC_RDPS_SpecificHumidity_IsbL-0850_RLatLon0.09_PT048H.grib2 2026-05-06 08:56 815K
20260506T06Z_MSC_RDPS_SpecificHumidity_IsbL-0875_RLatLon0.09_PT048H.grib2 2026-05-06 08:56 839K
20260506T06Z_MSC_RDPS_SpecificHumidity_IsbL-0900_RLatLon0.09_PT048H.grib2 2026-05-06 08:56 851K
20260506T06Z_MSC_RDPS_SpecificHumidity_IsbL-0925_RLatLon0.09_PT048H.grib2 2026-05-06 08:56 712K
20260506T06Z_MSC_RDPS_SpecificHumidity_IsbL-0950_RLatLon0.09_PT048H.grib2 2026-05-06 08:56 711K
20260506T06Z_MSC_RDPS_SpecificHumidity_IsbL-0970_RLatLon0.09_PT048H.grib2 2026-05-06 08:56 704K
20260506T06Z_MSC_RDPS_SpecificHumidity_IsbL-0985_RLatLon0.09_PT048H.grib2 2026-05-06 08:56 695K
20260506T06Z_MSC_RDPS_SpecificHumidity_IsbL-1000_RLatLon0.09_PT048H.grib2 2026-05-06 08:56 687K
20260506T06Z_MSC_RDPS_SpecificHumidity_IsbL-1015_RLatLon0.09_PT048H.grib2 2026-05-06 08:56 676K
20260506T06Z_MSC_RDPS_SpecificHumidity_Sfc_RLatLon0.09_PT048H.grib2 2026-05-06 08:56 317K
20260506T06Z_MSC_RDPS_StormRelativeHelicity_EtaL-10000_RLatLon0.09_PT048H.grib2 2026-05-06 08:56 1.1M
20260506T06Z_MSC_RDPS_StormSeverityIndex_EtaL-10000_RLatLon0.09_PT048H.grib2 2026-05-06 08:56 1.1M
20260506T06Z_MSC_RDPS_Thickness_IsbL-0850to0700_RLatLon0.09_PT048H.grib2 2026-05-06 08:56 171K
20260506T06Z_MSC_RDPS_Thickness_IsbL-1000to0500_RLatLon0.09_PT048H.grib2 2026-05-06 08:56 190K
20260506T06Z_MSC_RDPS_Thickness_IsbL-1000to0850_RLatLon0.09_PT048H.grib2 2026-05-06 08:56 255K
20260506T06Z_MSC_RDPS_TotalCloudCover_Sfc_RLatLon0.09_PT048H.grib2 2026-05-06 08:56 671K
20260506T06Z_MSC_RDPS_TotalTotalsIndex_Sfc_RLatLon0.09_PT048H.grib2 2026-05-06 08:56 2.5M
20260506T06Z_MSC_RDPS_UVIndex-ClearSky_Sfc_RLatLon0.09_PT048H.grib2 2026-05-06 08:56 133K
20260506T06Z_MSC_RDPS_UVIndex_Sfc_RLatLon0.09_PT048H.grib2 2026-05-06 08:56 223K
20260506T06Z_MSC_RDPS_UpwardLongwaveRadiationFlux_NTAtm_RLatLon0.09_PT048H.grib2 2026-05-06 08:56 482K
20260506T06Z_MSC_RDPS_UpwardShortwaveRadiationFlux_NTAtm_RLatLon0.09_PT048H.grib2 2026-05-06 08:56 149K
20260506T06Z_MSC_RDPS_VerticalVelocity_IsbL-0250_RLatLon0.09_PT048H.grib2 2026-05-06 08:56 442K
20260506T06Z_MSC_RDPS_VerticalVelocity_IsbL-0500_RLatLon0.09_PT048H.grib2 2026-05-06 08:56 524K
20260506T06Z_MSC_RDPS_VerticalVelocity_IsbL-0700_RLatLon0.09_PT048H.grib2 2026-05-06 08:56 579K
20260506T06Z_MSC_RDPS_VerticalVelocity_IsbL-0850_RLatLon0.09_PT048H.grib2 2026-05-06 08:56 822K
20260506T06Z_MSC_RDPS_VerticalWindShear_EtaL-6500_RLatLon0.09_PT048H.grib2 2026-05-06 08:56 1.2M
20260506T06Z_MSC_RDPS_WindChill_Sfc_RLatLon0.09_PT048H.grib2 2026-05-06 08:56 1.2M
20260506T06Z_MSC_RDPS_WindDir_AGL-10m_RLatLon0.09_PT048H.grib2 2026-05-06 08:56 1.0M
20260506T06Z_MSC_RDPS_WindDir_AGL-120m_RLatLon0.09_PT048H.grib2 2026-05-06 08:56 617K
20260506T06Z_MSC_RDPS_WindDir_AGL-40m_RLatLon0.09_PT048H.grib2 2026-05-06 08:56 652K
20260506T06Z_MSC_RDPS_WindDir_AGL-80m_RLatLon0.09_PT048H.grib2 2026-05-06 08:56 630K
20260506T06Z_MSC_RDPS_WindDir_IsbL-0001_RLatLon0.09_PT048H.grib2 2026-05-06 08:56 319K
20260506T06Z_MSC_RDPS_WindDir_IsbL-0005_RLatLon0.09_PT048H.grib2 2026-05-06 08:56 397K
20260506T06Z_MSC_RDPS_WindDir_IsbL-0010_RLatLon0.09_PT048H.grib2 2026-05-06 08:56 381K
20260506T06Z_MSC_RDPS_WindDir_IsbL-0020_RLatLon0.09_PT048H.grib2 2026-05-06 08:56 423K
20260506T06Z_MSC_RDPS_WindDir_IsbL-0030_RLatLon0.09_PT048H.grib2 2026-05-06 08:56 414K
20260506T06Z_MSC_RDPS_WindDir_IsbL-0050_RLatLon0.09_PT048H.grib2 2026-05-06 08:56 448K
20260506T06Z_MSC_RDPS_WindDir_IsbL-0100_RLatLon0.09_PT048H.grib2 2026-05-06 08:56 419K
20260506T06Z_MSC_RDPS_WindDir_IsbL-0150_RLatLon0.09_PT048H.grib2 2026-05-06 08:56 409K
20260506T06Z_MSC_RDPS_WindDir_IsbL-0175_RLatLon0.09_PT048H.grib2 2026-05-06 08:56 431K
20260506T06Z_MSC_RDPS_WindDir_IsbL-0200_RLatLon0.09_PT048H.grib2 2026-05-06 08:56 449K
20260506T06Z_MSC_RDPS_WindDir_IsbL-0225_RLatLon0.09_PT048H.grib2 2026-05-06 08:56 455K
20260506T06Z_MSC_RDPS_WindDir_IsbL-0250_RLatLon0.09_PT048H.grib2 2026-05-06 08:56 454K
20260506T06Z_MSC_RDPS_WindDir_IsbL-0275_RLatLon0.09_PT048H.grib2 2026-05-06 08:56 467K
20260506T06Z_MSC_RDPS_WindDir_IsbL-0300_RLatLon0.09_PT048H.grib2 2026-05-06 08:56 465K
20260506T06Z_MSC_RDPS_WindDir_IsbL-0350_RLatLon0.09_PT048H.grib2 2026-05-06 08:56 487K
20260506T06Z_MSC_RDPS_WindDir_IsbL-0400_RLatLon0.09_PT048H.grib2 2026-05-06 08:56 506K
20260506T06Z_MSC_RDPS_WindDir_IsbL-0450_RLatLon0.09_PT048H.grib2 2026-05-06 08:56 533K
20260506T06Z_MSC_RDPS_WindDir_IsbL-0500_RLatLon0.09_PT048H.grib2 2026-05-06 08:56 554K
20260506T06Z_MSC_RDPS_WindDir_IsbL-0550_RLatLon0.09_PT048H.grib2 2026-05-06 08:56 570K
20260506T06Z_MSC_RDPS_WindDir_IsbL-0600_RLatLon0.09_PT048H.grib2 2026-05-06 08:56 594K
20260506T06Z_MSC_RDPS_WindDir_IsbL-0650_RLatLon0.09_PT048H.grib2 2026-05-06 08:56 627K
20260506T06Z_MSC_RDPS_WindDir_IsbL-0700_RLatLon0.09_PT048H.grib2 2026-05-06 08:56 668K
20260506T06Z_MSC_RDPS_WindDir_IsbL-0750_RLatLon0.09_PT048H.grib2 2026-05-06 08:56 721K
20260506T06Z_MSC_RDPS_WindDir_IsbL-0800_RLatLon0.09_PT048H.grib2 2026-05-06 08:56 787K
20260506T06Z_MSC_RDPS_WindDir_IsbL-0850_RLatLon0.09_PT048H.grib2 2026-05-06 08:56 863K
20260506T06Z_MSC_RDPS_WindDir_IsbL-0875_RLatLon0.09_PT048H.grib2 2026-05-06 08:56 892K
20260506T06Z_MSC_RDPS_WindDir_IsbL-0900_RLatLon0.09_PT048H.grib2 2026-05-06 08:56 913K
20260506T06Z_MSC_RDPS_WindDir_IsbL-0925_RLatLon0.09_PT048H.grib2 2026-05-06 08:56 924K
20260506T06Z_MSC_RDPS_WindDir_IsbL-0950_RLatLon0.09_PT048H.grib2 2026-05-06 08:56 928K
20260506T06Z_MSC_RDPS_WindDir_IsbL-0970_RLatLon0.09_PT048H.grib2 2026-05-06 08:56 935K
20260506T06Z_MSC_RDPS_WindDir_IsbL-0985_RLatLon0.09_PT048H.grib2 2026-05-06 08:56 942K
20260506T06Z_MSC_RDPS_WindDir_IsbL-1000_RLatLon0.09_PT048H.grib2 2026-05-06 08:56 959K
20260506T06Z_MSC_RDPS_WindDir_IsbL-1015_RLatLon0.09_PT048H.grib2 2026-05-06 08:56 1.0M
20260506T06Z_MSC_RDPS_WindGust-Max_AGL-10m_RLatLon0.09_PT048H.grib2 2026-05-06 08:56 1.0M
20260506T06Z_MSC_RDPS_WindGust-Min_AGL-10m_RLatLon0.09_PT048H.grib2 2026-05-06 08:56 958K
20260506T06Z_MSC_RDPS_WindGust_AGL-10m_RLatLon0.09_PT048H.grib2 2026-05-06 08:56 1.0M
20260506T06Z_MSC_RDPS_WindSpeed_AGL-10m_RLatLon0.09_PT048H.grib2 2026-05-06 08:56 1.0M
20260506T06Z_MSC_RDPS_WindSpeed_AGL-120m_RLatLon0.09_PT048H.grib2 2026-05-06 08:56 662K
20260506T06Z_MSC_RDPS_WindSpeed_AGL-40m_RLatLon0.09_PT048H.grib2 2026-05-06 08:56 664K
20260506T06Z_MSC_RDPS_WindSpeed_AGL-80m_RLatLon0.09_PT048H.grib2 2026-05-06 08:56 663K
20260506T06Z_MSC_RDPS_WindSpeed_IsbL-0001_RLatLon0.09_PT048H.grib2 2026-05-06 08:56 330K
20260506T06Z_MSC_RDPS_WindSpeed_IsbL-0005_RLatLon0.09_PT048H.grib2 2026-05-06 08:56 295K
20260506T06Z_MSC_RDPS_WindSpeed_IsbL-0010_RLatLon0.09_PT048H.grib2 2026-05-06 08:56 397K
20260506T06Z_MSC_RDPS_WindSpeed_IsbL-0020_RLatLon0.09_PT048H.grib2 2026-05-06 08:56 323K
20260506T06Z_MSC_RDPS_WindSpeed_IsbL-0030_RLatLon0.09_PT048H.grib2 2026-05-06 08:56 318K
20260506T06Z_MSC_RDPS_WindSpeed_IsbL-0050_RLatLon0.09_PT048H.grib2 2026-05-06 08:56 451K
20260506T06Z_MSC_RDPS_WindSpeed_IsbL-0100_RLatLon0.09_PT048H.grib2 2026-05-06 08:56 466K
20260506T06Z_MSC_RDPS_WindSpeed_IsbL-0150_RLatLon0.09_PT048H.grib2 2026-05-06 08:56 394K
20260506T06Z_MSC_RDPS_WindSpeed_IsbL-0175_RLatLon0.09_PT048H.grib2 2026-05-06 08:56 417K
20260506T06Z_MSC_RDPS_WindSpeed_IsbL-0200_RLatLon0.09_PT048H.grib2 2026-05-06 08:56 433K
20260506T06Z_MSC_RDPS_WindSpeed_IsbL-0225_RLatLon0.09_PT048H.grib2 2026-05-06 08:56 438K
20260506T06Z_MSC_RDPS_WindSpeed_IsbL-0250_RLatLon0.09_PT048H.grib2 2026-05-06 08:56 439K
20260506T06Z_MSC_RDPS_WindSpeed_IsbL-0275_RLatLon0.09_PT048H.grib2 2026-05-06 08:56 455K
20260506T06Z_MSC_RDPS_WindSpeed_IsbL-0300_RLatLon0.09_PT048H.grib2 2026-05-06 08:56 453K
20260506T06Z_MSC_RDPS_WindSpeed_IsbL-0350_RLatLon0.09_PT048H.grib2 2026-05-06 08:56 447K
20260506T06Z_MSC_RDPS_WindSpeed_IsbL-0400_RLatLon0.09_PT048H.grib2 2026-05-06 08:56 452K
20260506T06Z_MSC_RDPS_WindSpeed_IsbL-0450_RLatLon0.09_PT048H.grib2 2026-05-06 08:56 453K
20260506T06Z_MSC_RDPS_WindSpeed_IsbL-0500_RLatLon0.09_PT048H.grib2 2026-05-06 08:56 572K
20260506T06Z_MSC_RDPS_WindSpeed_IsbL-0550_RLatLon0.09_PT048H.grib2 2026-05-06 08:56 573K
20260506T06Z_MSC_RDPS_WindSpeed_IsbL-0600_RLatLon0.09_PT048H.grib2 2026-05-06 08:56 583K
20260506T06Z_MSC_RDPS_WindSpeed_IsbL-0650_RLatLon0.09_PT048H.grib2 2026-05-06 08:56 604K
20260506T06Z_MSC_RDPS_WindSpeed_IsbL-0700_RLatLon0.09_PT048H.grib2 2026-05-06 08:56 672K
20260506T06Z_MSC_RDPS_WindSpeed_IsbL-0750_RLatLon0.09_PT048H.grib2 2026-05-06 08:56 702K
20260506T06Z_MSC_RDPS_WindSpeed_IsbL-0800_RLatLon0.09_PT048H.grib2 2026-05-06 08:56 749K
20260506T06Z_MSC_RDPS_WindSpeed_IsbL-0850_RLatLon0.09_PT048H.grib2 2026-05-06 08:56 805K
20260506T06Z_MSC_RDPS_WindSpeed_IsbL-0875_RLatLon0.09_PT048H.grib2 2026-05-06 08:56 827K
20260506T06Z_MSC_RDPS_WindSpeed_IsbL-0900_RLatLon0.09_PT048H.grib2 2026-05-06 08:56 848K
20260506T06Z_MSC_RDPS_WindSpeed_IsbL-0925_RLatLon0.09_PT048H.grib2 2026-05-06 08:56 858K
20260506T06Z_MSC_RDPS_WindSpeed_IsbL-0950_RLatLon0.09_PT048H.grib2 2026-05-06 08:56 860K
20260506T06Z_MSC_RDPS_WindSpeed_IsbL-0970_RLatLon0.09_PT048H.grib2 2026-05-06 08:56 856K
20260506T06Z_MSC_RDPS_WindSpeed_IsbL-0985_RLatLon0.09_PT048H.grib2 2026-05-06 08:56 848K
20260506T06Z_MSC_RDPS_WindSpeed_IsbL-1000_RLatLon0.09_PT048H.grib2 2026-05-06 08:56 841K
20260506T06Z_MSC_RDPS_WindSpeed_IsbL-1015_RLatLon0.09_PT048H.grib2 2026-05-06 08:56 1.0M
20260506T06Z_MSC_RDPS_WindU_AGL-10m_RLatLon0.09_PT048H.grib2 2026-05-06 08:56 429K
20260506T06Z_MSC_RDPS_WindU_AGL-120m_RLatLon0.09_PT048H.grib2 2026-05-06 08:56 531K
20260506T06Z_MSC_RDPS_WindU_AGL-40m_RLatLon0.09_PT048H.grib2 2026-05-06 08:56 535K
20260506T06Z_MSC_RDPS_WindU_AGL-80m_RLatLon0.09_PT048H.grib2 2026-05-06 08:56 532K
20260506T06Z_MSC_RDPS_WindU_IsbL-0001_RLatLon0.09_PT048H.grib2 2026-05-06 08:56 242K
20260506T06Z_MSC_RDPS_WindU_IsbL-0005_RLatLon0.09_PT048H.grib2 2026-05-06 08:56 286K
20260506T06Z_MSC_RDPS_WindU_IsbL-0010_RLatLon0.09_PT048H.grib2 2026-05-06 08:56 297K
20260506T06Z_MSC_RDPS_WindU_IsbL-0020_RLatLon0.09_PT048H.grib2 2026-05-06 08:56 317K
20260506T06Z_MSC_RDPS_WindU_IsbL-0030_RLatLon0.09_PT048H.grib2 2026-05-06 08:56 352K
20260506T06Z_MSC_RDPS_WindU_IsbL-0050_RLatLon0.09_PT048H.grib2 2026-05-06 08:56 377K
20260506T06Z_MSC_RDPS_WindU_IsbL-0100_RLatLon0.09_PT048H.grib2 2026-05-06 08:56 421K
20260506T06Z_MSC_RDPS_WindU_IsbL-0150_RLatLon0.09_PT048H.grib2 2026-05-06 08:56 388K
20260506T06Z_MSC_RDPS_WindU_IsbL-0175_RLatLon0.09_PT048H.grib2 2026-05-06 08:56 410K
20260506T06Z_MSC_RDPS_WindU_IsbL-0200_RLatLon0.09_PT048H.grib2 2026-05-06 08:56 426K
20260506T06Z_MSC_RDPS_WindU_IsbL-0225_RLatLon0.09_PT048H.grib2 2026-05-06 08:56 332K
20260506T06Z_MSC_RDPS_WindU_IsbL-0250_RLatLon0.09_PT048H.grib2 2026-05-06 08:56 331K
20260506T06Z_MSC_RDPS_WindU_IsbL-0275_RLatLon0.09_PT048H.grib2 2026-05-06 08:56 345K
20260506T06Z_MSC_RDPS_WindU_IsbL-0300_RLatLon0.09_PT048H.grib2 2026-05-06 08:56 342K
20260506T06Z_MSC_RDPS_WindU_IsbL-0350_RLatLon0.09_PT048H.grib2 2026-05-06 08:56 350K
20260506T06Z_MSC_RDPS_WindU_IsbL-0400_RLatLon0.09_PT048H.grib2 2026-05-06 08:56 455K
20260506T06Z_MSC_RDPS_WindU_IsbL-0450_RLatLon0.09_PT048H.grib2 2026-05-06 08:56 458K
20260506T06Z_MSC_RDPS_WindU_IsbL-0500_RLatLon0.09_PT048H.grib2 2026-05-06 08:56 461K
20260506T06Z_MSC_RDPS_WindU_IsbL-0550_RLatLon0.09_PT048H.grib2 2026-05-06 08:56 447K
20260506T06Z_MSC_RDPS_WindU_IsbL-0600_RLatLon0.09_PT048H.grib2 2026-05-06 08:56 455K
20260506T06Z_MSC_RDPS_WindU_IsbL-0650_RLatLon0.09_PT048H.grib2 2026-05-06 08:56 474K
20260506T06Z_MSC_RDPS_WindU_IsbL-0700_RLatLon0.09_PT048H.grib2 2026-05-06 08:56 497K
20260506T06Z_MSC_RDPS_WindU_IsbL-0750_RLatLon0.09_PT048H.grib2 2026-05-06 08:56 650K
20260506T06Z_MSC_RDPS_WindU_IsbL-0800_RLatLon0.09_PT048H.grib2 2026-05-06 08:56 694K
20260506T06Z_MSC_RDPS_WindU_IsbL-0850_RLatLon0.09_PT048H.grib2 2026-05-06 08:56 754K
20260506T06Z_MSC_RDPS_WindU_IsbL-0875_RLatLon0.09_PT048H.grib2 2026-05-06 08:56 774K
20260506T06Z_MSC_RDPS_WindU_IsbL-0900_RLatLon0.09_PT048H.grib2 2026-05-06 08:56 788K
20260506T06Z_MSC_RDPS_WindU_IsbL-0925_RLatLon0.09_PT048H.grib2 2026-05-06 08:56 658K
20260506T06Z_MSC_RDPS_WindU_IsbL-0950_RLatLon0.09_PT048H.grib2 2026-05-06 08:56 657K
20260506T06Z_MSC_RDPS_WindU_IsbL-0970_RLatLon0.09_PT048H.grib2 2026-05-06 08:56 792K
20260506T06Z_MSC_RDPS_WindU_IsbL-0985_RLatLon0.09_PT048H.grib2 2026-05-06 08:56 786K
20260506T06Z_MSC_RDPS_WindU_IsbL-1000_RLatLon0.09_PT048H.grib2 2026-05-06 08:56 780K
20260506T06Z_MSC_RDPS_WindU_IsbL-1015_RLatLon0.09_PT048H.grib2 2026-05-06 08:56 820K
20260506T06Z_MSC_RDPS_WindV_AGL-10m_RLatLon0.09_PT048H.grib2 2026-05-06 08:56 424K
20260506T06Z_MSC_RDPS_WindV_AGL-120m_RLatLon0.09_PT048H.grib2 2026-05-06 08:56 529K
20260506T06Z_MSC_RDPS_WindV_AGL-40m_RLatLon0.09_PT048H.grib2 2026-05-06 08:56 531K
20260506T06Z_MSC_RDPS_WindV_AGL-80m_RLatLon0.09_PT048H.grib2 2026-05-06 08:56 530K
20260506T06Z_MSC_RDPS_WindV_IsbL-0001_RLatLon0.09_PT048H.grib2 2026-05-06 08:56 245K
20260506T06Z_MSC_RDPS_WindV_IsbL-0005_RLatLon0.09_PT048H.grib2 2026-05-06 08:56 285K
20260506T06Z_MSC_RDPS_WindV_IsbL-0010_RLatLon0.09_PT048H.grib2 2026-05-06 08:56 297K
20260506T06Z_MSC_RDPS_WindV_IsbL-0020_RLatLon0.09_PT048H.grib2 2026-05-06 08:56 317K
20260506T06Z_MSC_RDPS_WindV_IsbL-0030_RLatLon0.09_PT048H.grib2 2026-05-06 08:56 314K
20260506T06Z_MSC_RDPS_WindV_IsbL-0050_RLatLon0.09_PT048H.grib2 2026-05-06 08:56 342K
20260506T06Z_MSC_RDPS_WindV_IsbL-0100_RLatLon0.09_PT048H.grib2 2026-05-06 08:56 421K
20260506T06Z_MSC_RDPS_WindV_IsbL-0150_RLatLon0.09_PT048H.grib2 2026-05-06 08:56 387K
20260506T06Z_MSC_RDPS_WindV_IsbL-0175_RLatLon0.09_PT048H.grib2 2026-05-06 08:56 409K
20260506T06Z_MSC_RDPS_WindV_IsbL-0200_RLatLon0.09_PT048H.grib2 2026-05-06 08:56 330K
20260506T06Z_MSC_RDPS_WindV_IsbL-0225_RLatLon0.09_PT048H.grib2 2026-05-06 08:56 359K
20260506T06Z_MSC_RDPS_WindV_IsbL-0250_RLatLon0.09_PT048H.grib2 2026-05-06 08:56 359K
20260506T06Z_MSC_RDPS_WindV_IsbL-0275_RLatLon0.09_PT048H.grib2 2026-05-06 08:56 371K
20260506T06Z_MSC_RDPS_WindV_IsbL-0300_RLatLon0.09_PT048H.grib2 2026-05-06 08:56 367K
20260506T06Z_MSC_RDPS_WindV_IsbL-0350_RLatLon0.09_PT048H.grib2 2026-05-06 08:56 351K
20260506T06Z_MSC_RDPS_WindV_IsbL-0400_RLatLon0.09_PT048H.grib2 2026-05-06 08:56 354K
20260506T06Z_MSC_RDPS_WindV_IsbL-0450_RLatLon0.09_PT048H.grib2 2026-05-06 08:56 457K
20260506T06Z_MSC_RDPS_WindV_IsbL-0500_RLatLon0.09_PT048H.grib2 2026-05-06 08:56 459K
20260506T06Z_MSC_RDPS_WindV_IsbL-0550_RLatLon0.09_PT048H.grib2 2026-05-06 08:56 461K
20260506T06Z_MSC_RDPS_WindV_IsbL-0600_RLatLon0.09_PT048H.grib2 2026-05-06 08:56 470K
20260506T06Z_MSC_RDPS_WindV_IsbL-0650_RLatLon0.09_PT048H.grib2 2026-05-06 08:56 488K
20260506T06Z_MSC_RDPS_WindV_IsbL-0700_RLatLon0.09_PT048H.grib2 2026-05-06 08:56 509K
20260506T06Z_MSC_RDPS_WindV_IsbL-0750_RLatLon0.09_PT048H.grib2 2026-05-06 08:56 520K
20260506T06Z_MSC_RDPS_WindV_IsbL-0800_RLatLon0.09_PT048H.grib2 2026-05-06 08:56 561K
20260506T06Z_MSC_RDPS_WindV_IsbL-0850_RLatLon0.09_PT048H.grib2 2026-05-06 08:56 616K
20260506T06Z_MSC_RDPS_WindV_IsbL-0875_RLatLon0.09_PT048H.grib2 2026-05-06 08:56 635K
20260506T06Z_MSC_RDPS_WindV_IsbL-0900_RLatLon0.09_PT048H.grib2 2026-05-06 08:56 647K
20260506T06Z_MSC_RDPS_WindV_IsbL-0925_RLatLon0.09_PT048H.grib2 2026-05-06 08:56 657K
20260506T06Z_MSC_RDPS_WindV_IsbL-0950_RLatLon0.09_PT048H.grib2 2026-05-06 08:56 655K
20260506T06Z_MSC_RDPS_WindV_IsbL-0970_RLatLon0.09_PT048H.grib2 2026-05-06 08:56 792K
20260506T06Z_MSC_RDPS_WindV_IsbL-0985_RLatLon0.09_PT048H.grib2 2026-05-06 08:56 782K
20260506T06Z_MSC_RDPS_WindV_IsbL-1000_RLatLon0.09_PT048H.grib2 2026-05-06 08:56 822K
20260506T06Z_MSC_RDPS_WindV_IsbL-1015_RLatLon0.09_PT048H.grib2 2026-05-06 08:56 813K